Location: Parchey Bridge, Chedzoy
(51.1354°N, 2.9289°W)
Time: 11:35:39
(UTC+00:00)

ISS - Pass Details

Date: 26 February 2019
Orbit: 406 x 411 km, 51.6° (Epoch: 20 March)

Event Time Altitude Azimuth Distance (km) Brightness Sun altitude
Exits shadow 06:06:17 - 222° (SW) 1,909 -0.8 -9.7°
Reaches altitude 10° 06:07:27 10° 215° (SW) 1,462 -1.3 -9.5°
Maximum altitude 06:10:25 32° 150° (SSE) 719 -2.2 -9.1°
Drops below altitude 10° 06:13:25 10° 85° (E) 1,470 0.7 -8.6°
Sets 06:15:37 0° 76° (ENE) 2,335 1.7 -8.3°
